TRA2607 EHRD-LEJR

Flight info

Callsign TRA2607
Flight time 2h 42m
Altitude 37000
Route WOODY N872 MEDIL DCT RESMI UN857 DISAK DCT TUDRA DCT OSMOB DCT ARVID T424 PPN N857 NOLSA N10 BAN N857 HIJ
Aircraft B738/M-SDE2E3FGHIRWXY/LB1

Departure

Time 2026-04-27 11:47
Airport Rotterdam The Hague Airport (EHRD)

Arrival

Time 2026-04-27 14:29
Airport Jerez Airport (LEJR)
Time Latitude Longitude Altitude Speed Heading
2026-04-27 11:16 51.95036 4.43563 0 ft 0 kts 329°
2026-04-27 11:43 51.95083 4.43554 0 ft 12 kts 22°
2026-04-27 11:44 51.95166 4.43533 1 ft 13 kts 316°
2026-04-27 11:44 51.95231 4.43438 0 ft 13 kts 301°
2026-04-27 11:44 51.95208 4.43310 0 ft 12 kts 237°
2026-04-27 11:44 51.95160 4.43197 0 ft 12 kts 235°
2026-04-27 11:45 51.95126 4.43076 0 ft 12 kts 245°
2026-04-27 11:45 51.95110 4.43010 0 ft 0 kts 258°
2026-04-27 11:45 51.95127 4.42935 0 ft 17 kts 316°
2026-04-27 11:46 51.95226 4.42869 1 ft 12 kts 21°
2026-04-27 11:46 51.95316 4.43090 0 ft 56 kts 57°
2026-04-27 11:46 51.95683 4.44003 0 ft 135 kts 57°
2026-04-27 11:46 51.96298 4.45516 273 ft 180 kts 56°
2026-04-27 11:47 51.96749 4.46694 888 ft 186 kts 58°
2026-04-27 11:47 51.97153 4.47807 1834 ft 170 kts 60°
2026-04-27 11:47 51.97778 4.49604 2821 ft 184 kts 60°
2026-04-27 11:47 51.98446 4.51573 3157 ft 214 kts 62°
2026-04-27 11:48 51.99152 4.53822 3568 ft 232 kts 62°
2026-04-27 11:48 51.99710 4.56390 3872 ft 254 kts 84°
2026-04-27 11:48 51.99439 4.59269 4610 ft 266 kts 113°
2026-04-27 11:48 51.98372 4.61718 5128 ft 271 kts 139°
2026-04-27 11:49 51.96688 4.63009 5324 ft 273 kts 170°
2026-04-27 11:49 51.94777 4.62863 5312 ft 277 kts 192°
2026-04-27 11:49 51.92911 4.62073 5301 ft 277 kts 196°
2026-04-27 11:49 51.91075 4.61164 5284 ft 275 kts 198°
2026-04-27 11:50 51.89256 4.60212 5402 ft 271 kts 198°
2026-04-27 11:50 51.87492 4.59295 6034 ft 271 kts 198°
2026-04-27 11:50 51.85676 4.58370 6825 ft 277 kts 198°
2026-04-27 11:50 51.83828 4.57438 7679 ft 279 kts 198°
2026-04-27 11:51 51.81966 4.56513 8559 ft 281 kts 198°
2026-04-27 11:51 51.80086 4.55586 9417 ft 285 kts 198°
2026-04-27 11:51 51.76234 4.53703 10803 ft 301 kts 198°
2026-04-27 11:52 51.74871 4.53038 10914 ft 318 kts 198°
2026-04-27 11:52 51.72671 4.51969 11182 ft 339 kts 198°
2026-04-27 11:52 51.70382 4.50863 11789 ft 347 kts 198°
2026-04-27 11:52 51.68061 4.49745 12566 ft 348 kts 199°
2026-04-27 11:53 51.65734 4.48627 13398 ft 350 kts 199°
2026-04-27 11:53 51.63387 4.47499 14140 ft 354 kts 199°
2026-04-27 11:53 51.61012 4.46357 14820 ft 357 kts 199°
2026-04-27 11:53 51.58624 4.45211 15502 ft 360 kts 199°
2026-04-27 11:54 51.56213 4.44055 16194 ft 363 kts 200°
2026-04-27 11:54 51.53776 4.42887 16863 ft 367 kts 200°
2026-04-27 11:54 51.51321 4.41713 17515 ft 370 kts 200°
2026-04-27 11:54 51.48844 4.40529 18175 ft 373 kts 200°
2026-04-27 11:55 51.46338 4.39333 18800 ft 377 kts 200°
2026-04-27 11:55 51.43818 4.38132 19359 ft 379 kts 200°
2026-04-27 11:55 51.41280 4.36920 19910 ft 382 kts 201°
2026-04-27 11:55 51.38799 4.35404 20446 ft 382 kts 209°
2026-04-27 11:56 51.36404 4.33553 21009 ft 384 kts 210°
2026-04-27 11:56 51.33993 4.31687 21558 ft 387 kts 210°
2026-04-27 11:56 51.31553 4.29838 22081 ft 390 kts 209°
2026-04-27 11:56 51.29092 4.27974 22606 ft 393 kts 210°
2026-04-27 11:57 51.26617 4.26089 23142 ft 395 kts 210°
2026-04-27 11:57 51.24130 4.24194 23652 ft 397 kts 210°
2026-04-27 11:57 51.21630 4.22290 24101 ft 400 kts 210°
2026-04-27 11:57 51.19155 4.20412 24504 ft 403 kts 210°
2026-04-27 11:58 51.16618 4.18500 24941 ft 405 kts 208°
2026-04-27 11:58 51.13977 4.16851 25358 ft 409 kts 204°
2026-04-27 11:58 51.11271 4.15378 25765 ft 412 kts 203°
2026-04-27 11:58 51.08543 4.13942 26161 ft 414 kts 203°
2026-04-27 11:59 51.05802 4.12497 26567 ft 416 kts 203°
2026-04-27 11:59 51.03054 4.11029 26954 ft 418 kts 204°
2026-04-27 11:59 51.00302 4.09543 27323 ft 420 kts 204°
2026-04-27 11:59 50.97529 4.08035 27692 ft 422 kts 204°
2026-04-27 12:00 50.94753 4.06523 28071 ft 423 kts 204°
2026-04-27 12:00 50.91963 4.05005 28431 ft 425 kts 204°
2026-04-27 12:00 50.89157 4.03481 28774 ft 427 kts 204°
2026-04-27 12:00 50.86363 4.01900 29100 ft 427 kts 206°
2026-04-27 12:01 50.83592 4.00162 29455 ft 428 kts 207°
2026-04-27 12:01 50.80849 3.98371 29799 ft 429 kts 207°
2026-04-27 12:01 50.78117 3.96575 30123 ft 430 kts 207°
2026-04-27 12:01 50.75351 3.94769 30478 ft 430 kts 207°
2026-04-27 12:02 50.72588 3.92985 30898 ft 428 kts 207°
2026-04-27 12:02 50.69801 3.91200 31279 ft 426 kts 207°
2026-04-27 12:02 50.67086 3.89465 31574 ft 427 kts 207°
2026-04-27 12:02 50.64298 3.87688 31893 ft 427 kts 207°
2026-04-27 12:03 50.61549 3.85939 32233 ft 426 kts 207°
2026-04-27 12:03 50.58841 3.84218 32575 ft 425 kts 207°
2026-04-27 12:03 50.56105 3.82462 32887 ft 424 kts 207°
2026-04-27 12:03 50.53401 3.80638 33193 ft 423 kts 208°
2026-04-27 12:04 50.50706 3.78779 33515 ft 422 kts 208°
2026-04-27 12:04 50.48019 3.76922 33841 ft 421 kts 208°
2026-04-27 12:04 50.45334 3.75075 34148 ft 421 kts 208°
2026-04-27 12:04 50.42650 3.73240 34401 ft 421 kts 208°
2026-04-27 12:05 50.39966 3.71412 34608 ft 422 kts 208°
2026-04-27 12:05 50.37267 3.69580 34807 ft 423 kts 208°
2026-04-27 12:05 50.34574 3.67755 35028 ft 423 kts 208°
2026-04-27 12:05 50.31873 3.65928 35245 ft 423 kts 208°
2026-04-27 12:06 50.29170 3.64104 35455 ft 423 kts 208°
2026-04-27 12:06 50.26465 3.62280 35648 ft 424 kts 208°
2026-04-27 12:06 50.23758 3.60457 35850 ft 424 kts 207°
2026-04-27 12:06 50.21048 3.58633 36068 ft 424 kts 207°
2026-04-27 12:07 50.18342 3.56815 36262 ft 424 kts 207°
2026-04-27 12:07 50.15624 3.54990 36460 ft 424 kts 207°
2026-04-27 12:07 50.12913 3.53171 36682 ft 424 kts 207°
2026-04-27 12:07 50.10200 3.51354 36851 ft 425 kts 207°
2026-04-27 12:08 50.07485 3.49538 37040 ft 425 kts 207°
2026-04-27 12:08 50.04773 3.47726 37216 ft 425 kts 207°
2026-04-27 12:08 50.02041 3.45902 37210 ft 428 kts 207°
2026-04-27 12:09 49.96583 3.42267 37214 ft 425 kts 207°
2026-04-27 12:09 49.91167 3.38670 37216 ft 422 kts 207°
2026-04-27 12:10 49.85787 3.35101 37217 ft 419 kts 207°
2026-04-27 12:10 49.80450 3.31511 37212 ft 416 kts 211°
2026-04-27 12:11 49.75489 3.27022 37210 ft 412 kts 216°
2026-04-27 12:11 49.70638 3.22402 37218 ft 413 kts 216°
2026-04-27 12:12 49.65688 3.17735 37219 ft 415 kts 215°
2026-04-27 12:12 49.60728 3.13113 37215 ft 417 kts 215°
2026-04-27 12:13 49.55774 3.08523 37215 ft 419 kts 215°
2026-04-27 12:13 49.50760 3.03893 37217 ft 421 kts 215°
2026-04-27 12:14 49.45694 2.99226 37212 ft 423 kts 215°
2026-04-27 12:14 49.40678 2.94617 37215 ft 423 kts 214°
2026-04-27 12:15 49.35632 2.89991 37210 ft 422 kts 214°
2026-04-27 12:15 49.30595 2.85383 37210 ft 421 kts 214°
2026-04-27 12:16 49.25869 2.81071 37210 ft 420 kts 214°
2026-04-27 12:16 49.20856 2.76506 37206 ft 418 kts 214°
2026-04-27 12:17 49.15859 2.71967 37209 ft 417 kts 214°
2026-04-27 12:17 49.10881 2.67456 37206 ft 416 kts 214°
2026-04-27 12:18 49.05912 2.62964 37213 ft 414 kts 214°
2026-04-27 12:18 49.00956 2.58492 37206 ft 414 kts 214°
2026-04-27 12:19 48.96003 2.54036 37215 ft 413 kts 214°
2026-04-27 12:19 48.91075 2.49611 37204 ft 413 kts 214°
2026-04-27 12:20 48.86130 2.45181 37218 ft 413 kts 214°
2026-04-27 12:20 48.81176 2.40754 37211 ft 413 kts 214°
2026-04-27 12:21 48.76217 2.36331 37208 ft 414 kts 214°
2026-04-27 12:21 48.71248 2.31911 37205 ft 414 kts 214°
2026-04-27 12:22 48.66274 2.27495 37212 ft 415 kts 214°
2026-04-27 12:22 48.61290 2.23081 37211 ft 415 kts 214°
2026-04-27 12:23 48.56139 2.19082 37202 ft 421 kts 204°
2026-04-27 12:23 48.50411 2.16989 37200 ft 425 kts 195°
2026-04-27 12:24 48.44608 2.15214 37201 ft 425 kts 196°
2026-04-27 12:24 48.38819 2.13378 37192 ft 425 kts 196°
2026-04-27 12:25 48.33030 2.11517 37195 ft 425 kts 196°
2026-04-27 12:25 48.27147 2.10339 37191 ft 432 kts 184°
2026-04-27 12:26 48.21136 2.11448 37191 ft 437 kts 175°
2026-04-27 12:26 48.15171 2.12410 37168 ft 428 kts 189°
2026-04-27 12:26 48.12234 2.11642 37192 ft 420 kts 201°
2026-04-27 12:27 48.09533 2.10065 37178 ft 414 kts 213°
2026-04-27 12:27 48.04628 2.05739 37185 ft 412 kts 214°
2026-04-27 12:28 47.99700 2.01350 37182 ft 413 kts 214°
2026-04-27 12:28 47.94755 1.97002 37182 ft 413 kts 214°
2026-04-27 12:29 47.89793 1.92677 37183 ft 413 kts 213°
2026-04-27 12:29 47.84821 1.88362 37182 ft 414 kts 213°
2026-04-27 12:30 47.79842 1.84053 37177 ft 414 kts 213°
2026-04-27 12:30 47.74861 1.79750 37179 ft 414 kts 213°
2026-04-27 12:31 47.69875 1.75453 37175 ft 414 kts 213°
2026-04-27 12:31 47.64890 1.71165 37166 ft 414 kts 213°
2026-04-27 12:32 47.59900 1.66884 37171 ft 414 kts 213°
2026-04-27 12:32 47.54917 1.62618 37159 ft 414 kts 213°
2026-04-27 12:33 47.49932 1.58358 37155 ft 413 kts 213°
2026-04-27 12:33 47.44956 1.54117 37158 ft 413 kts 213°
2026-04-27 12:34 47.39980 1.49885 37154 ft 412 kts 213°
2026-04-27 12:34 47.35010 1.45667 37160 ft 412 kts 213°
2026-04-27 12:35 47.30043 1.41461 37153 ft 411 kts 213°
2026-04-27 12:35 47.25086 1.37273 37158 ft 411 kts 213°
2026-04-27 12:36 47.20125 1.33089 37152 ft 411 kts 213°
2026-04-27 12:36 47.16006 1.29623 37158 ft 410 kts 213°
2026-04-27 12:37 47.11053 1.25464 37157 ft 410 kts 213°
2026-04-27 12:37 47.06102 1.21315 37155 ft 410 kts 213°
2026-04-27 12:38 47.01146 1.17171 37158 ft 410 kts 213°
2026-04-27 12:38 46.96192 1.13037 37155 ft 410 kts 213°
2026-04-27 12:39 46.91234 1.08909 37160 ft 410 kts 213°
2026-04-27 12:39 46.86275 1.04789 37153 ft 410 kts 213°
2026-04-27 12:40 46.81314 1.00676 37158 ft 410 kts 213°
2026-04-27 12:40 46.76350 0.96569 37160 ft 410 kts 213°
2026-04-27 12:41 46.71385 0.92471 37152 ft 410 kts 213°
2026-04-27 12:41 46.66414 0.88375 37158 ft 410 kts 213°
2026-04-27 12:42 46.61448 0.84292 37154 ft 410 kts 213°
2026-04-27 12:42 46.56479 0.80215 37157 ft 410 kts 213°
2026-04-27 12:43 46.51382 0.76461 37162 ft 412 kts 207°
2026-04-27 12:43 46.46083 0.73242 37156 ft 413 kts 206°
2026-04-27 12:44 46.40783 0.70047 37158 ft 413 kts 206°
2026-04-27 12:44 46.35486 0.66835 37154 ft 413 kts 206°
2026-04-27 12:45 46.30197 0.63619 37157 ft 413 kts 206°
2026-04-27 12:45 46.24901 0.60400 37155 ft 413 kts 206°
2026-04-27 12:46 46.19612 0.57191 37156 ft 413 kts 206°
2026-04-27 12:46 46.14318 0.53986 37153 ft 413 kts 206°
2026-04-27 12:47 46.09021 0.50787 37153 ft 413 kts 206°
2026-04-27 12:47 46.03722 0.47593 37146 ft 413 kts 206°
2026-04-27 12:48 45.98424 0.44406 37138 ft 413 kts 206°
2026-04-27 12:48 45.93125 0.41225 37137 ft 413 kts 206°
2026-04-27 12:49 45.87823 0.38049 37137 ft 413 kts 206°
2026-04-27 12:49 45.82521 0.34879 37130 ft 413 kts 206°
2026-04-27 12:50 45.77211 0.31712 37126 ft 413 kts 206°
2026-04-27 12:50 45.71896 0.28548 37127 ft 414 kts 206°
2026-04-27 12:51 45.66576 0.25388 37140 ft 414 kts 206°
2026-04-27 12:51 45.61253 0.22231 37123 ft 415 kts 206°
2026-04-27 12:52 45.55922 0.19078 37132 ft 415 kts 206°
2026-04-27 12:52 45.50587 0.15928 37130 ft 415 kts 206°
2026-04-27 12:53 45.42777 0.11328 37130 ft 415 kts 205°
2026-04-27 12:53 45.37471 0.08212 37133 ft 415 kts 205°
2026-04-27 12:54 45.32124 0.05077 37128 ft 416 kts 205°
2026-04-27 12:54 45.26774 0.01946 37125 ft 416 kts 205°
2026-04-27 12:55 45.21422 -0.01178 37123 ft 416 kts 205°
2026-04-27 12:55 45.16069 -0.04297 37118 ft 416 kts 205°
2026-04-27 12:56 45.10712 -0.07412 37123 ft 416 kts 205°
2026-04-27 12:56 45.05355 -0.10521 37128 ft 416 kts 205°
2026-04-27 12:57 45.00002 -0.13621 37123 ft 416 kts 205°
2026-04-27 12:57 44.94643 -0.16718 37120 ft 416 kts 205°
2026-04-27 12:58 44.89280 -0.19812 37127 ft 416 kts 205°
2026-04-27 12:58 44.83913 -0.22901 37125 ft 417 kts 205°
2026-04-27 12:59 44.78543 -0.25986 37128 ft 417 kts 205°
2026-04-27 12:59 44.73172 -0.29067 37127 ft 417 kts 205°
2026-04-27 13:00 44.67796 -0.32144 37127 ft 417 kts 205°
2026-04-27 13:00 44.62508 -0.35456 37125 ft 416 kts 210°
2026-04-27 13:01 44.57393 -0.39236 37119 ft 415 kts 211°
2026-04-27 13:01 44.52293 -0.43043 37118 ft 415 kts 210°
2026-04-27 13:02 44.47181 -0.46822 37122 ft 415 kts 210°
2026-04-27 13:02 44.42059 -0.50581 37126 ft 415 kts 210°
2026-04-27 13:03 44.36938 -0.54325 37114 ft 416 kts 210°
2026-04-27 13:03 44.31816 -0.58061 37117 ft 416 kts 210°
2026-04-27 13:04 44.26676 -0.61804 37116 ft 416 kts 210°
2026-04-27 13:04 44.21537 -0.65538 37116 ft 417 kts 210°
2026-04-27 13:05 44.16389 -0.69272 37119 ft 417 kts 210°
2026-04-27 13:05 44.11237 -0.73001 37124 ft 417 kts 210°
2026-04-27 13:06 44.06118 -0.76699 37126 ft 418 kts 210°
2026-04-27 13:06 44.00958 -0.80420 37128 ft 418 kts 210°
2026-04-27 13:07 43.95795 -0.84135 37128 ft 418 kts 210°
2026-04-27 13:07 43.90624 -0.87849 37128 ft 418 kts 210°
2026-04-27 13:08 43.85450 -0.91557 37133 ft 419 kts 210°
2026-04-27 13:08 43.80272 -0.95262 37134 ft 419 kts 210°
2026-04-27 13:09 43.75094 -0.98958 37134 ft 419 kts 210°
2026-04-27 13:09 43.69904 -1.02657 37131 ft 419 kts 210°
2026-04-27 13:10 43.65992 -1.05439 37134 ft 420 kts 210°
2026-04-27 13:10 43.60733 -1.09173 37135 ft 420 kts 209°
2026-04-27 13:11 43.55538 -1.12855 37127 ft 420 kts 209°
2026-04-27 13:11 43.50337 -1.16534 37133 ft 420 kts 209°
2026-04-27 13:12 43.45132 -1.20208 37153 ft 420 kts 209°
2026-04-27 13:12 43.39927 -1.23876 37154 ft 421 kts 209°
2026-04-27 13:13 43.34710 -1.27545 37148 ft 421 kts 209°
2026-04-27 13:13 43.29491 -1.31208 37149 ft 421 kts 209°
2026-04-27 13:14 43.24273 -1.34863 37150 ft 422 kts 209°
2026-04-27 13:14 43.19049 -1.38516 37155 ft 421 kts 209°
2026-04-27 13:15 43.13836 -1.42155 37161 ft 420 kts 209°
2026-04-27 13:15 43.08616 -1.45791 37136 ft 421 kts 209°
2026-04-27 13:16 43.03397 -1.49422 37134 ft 421 kts 209°
2026-04-27 13:16 42.98184 -1.53048 37100 ft 421 kts 209°
2026-04-27 13:17 42.92954 -1.56680 37098 ft 422 kts 209°
2026-04-27 13:17 42.87751 -1.60286 37112 ft 423 kts 209°
2026-04-27 13:18 42.82493 -1.63923 37100 ft 424 kts 209°
2026-04-27 13:18 42.77228 -1.67560 37106 ft 425 kts 209°
2026-04-27 13:19 42.71949 -1.71189 37105 ft 425 kts 208°
2026-04-27 13:19 42.66648 -1.74755 37101 ft 426 kts 208°
2026-04-27 13:20 42.61329 -1.78312 37102 ft 426 kts 208°
2026-04-27 13:20 42.56877 -1.81292 37093 ft 426 kts 208°
2026-04-27 13:21 42.51567 -1.84845 37088 ft 425 kts 208°
2026-04-27 13:21 42.46260 -1.88391 37090 ft 425 kts 208°
2026-04-27 13:22 42.40957 -1.91926 37092 ft 425 kts 208°
2026-04-27 13:22 42.35658 -1.95460 37091 ft 425 kts 208°
2026-04-27 13:23 42.30362 -1.98990 37094 ft 424 kts 208°
2026-04-27 13:23 42.25061 -2.02519 37097 ft 424 kts 208°
2026-04-27 13:24 42.19803 -2.06007 37093 ft 424 kts 208°
2026-04-27 13:24 42.14503 -2.09515 37106 ft 424 kts 208°
2026-04-27 13:25 42.09196 -2.13019 37097 ft 425 kts 208°
2026-04-27 13:25 42.03887 -2.16518 37101 ft 425 kts 208°
2026-04-27 13:26 41.98577 -2.20013 37110 ft 425 kts 208°
2026-04-27 13:26 41.93257 -2.23508 37098 ft 426 kts 208°
2026-04-27 13:27 41.87930 -2.27001 37107 ft 427 kts 208°
2026-04-27 13:27 41.82585 -2.30500 37101 ft 428 kts 208°
2026-04-27 13:28 41.77226 -2.34001 37098 ft 429 kts 208°
2026-04-27 13:28 41.71855 -2.37504 37094 ft 430 kts 208°
2026-04-27 13:29 41.66474 -2.41007 37091 ft 430 kts 208°
2026-04-27 13:29 41.61088 -2.44507 37089 ft 431 kts 208°
2026-04-27 13:30 41.55697 -2.48004 37080 ft 431 kts 208°
2026-04-27 13:30 41.50311 -2.51491 37078 ft 430 kts 208°
2026-04-27 13:31 41.44926 -2.54959 37078 ft 430 kts 208°
2026-04-27 13:31 41.39542 -2.58417 37068 ft 429 kts 208°
2026-04-27 13:32 41.34166 -2.61866 37073 ft 428 kts 208°
2026-04-27 13:32 41.29082 -2.65905 37078 ft 425 kts 217°
2026-04-27 13:33 41.24247 -2.70412 37068 ft 424 kts 217°
2026-04-27 13:33 41.19413 -2.74915 37060 ft 424 kts 217°
2026-04-27 13:34 41.14601 -2.79352 37064 ft 424 kts 217°
2026-04-27 13:34 41.09748 -2.83799 37062 ft 424 kts 217°
2026-04-27 13:35 41.04891 -2.88236 37067 ft 424 kts 217°
2026-04-27 13:35 41.00028 -2.92671 37060 ft 424 kts 217°
2026-04-27 13:36 40.95176 -2.97088 37060 ft 425 kts 217°
2026-04-27 13:36 40.90289 -3.01529 37060 ft 425 kts 217°
2026-04-27 13:37 40.85416 -3.05950 37058 ft 425 kts 217°
2026-04-27 13:37 40.80534 -3.10371 37057 ft 425 kts 217°
2026-04-27 13:38 40.75647 -3.14788 37054 ft 426 kts 217°
2026-04-27 13:38 40.70762 -3.19196 37053 ft 426 kts 217°
2026-04-27 13:39 40.65945 -3.23533 37053 ft 426 kts 217°
2026-04-27 13:39 40.61054 -3.27931 37052 ft 426 kts 217°
2026-04-27 13:40 40.56162 -3.32321 37048 ft 426 kts 217°
2026-04-27 13:40 40.51269 -3.36704 37049 ft 425 kts 216°
2026-04-27 13:41 40.46418 -3.41041 37045 ft 425 kts 216°
2026-04-27 13:41 40.41517 -3.45417 37048 ft 425 kts 216°
2026-04-27 13:42 40.36623 -3.49777 37049 ft 425 kts 216°
2026-04-27 13:42 40.31729 -3.54131 37072 ft 425 kts 216°
2026-04-27 13:43 40.26839 -3.58472 37074 ft 425 kts 216°
2026-04-27 13:43 40.21946 -3.62809 37071 ft 424 kts 216°
2026-04-27 13:44 40.17060 -3.67134 37073 ft 424 kts 216°
2026-04-27 13:44 40.12173 -3.71451 37071 ft 424 kts 216°
2026-04-27 13:45 40.07291 -3.75751 37057 ft 423 kts 216°
2026-04-27 13:45 40.02413 -3.80039 37056 ft 423 kts 216°
2026-04-27 13:46 39.97535 -3.84322 37042 ft 423 kts 216°
2026-04-27 13:46 39.92661 -3.88595 37037 ft 422 kts 216°
2026-04-27 13:47 39.87821 -3.92830 37043 ft 422 kts 216°
2026-04-27 13:47 39.82950 -3.97087 37035 ft 422 kts 216°
2026-04-27 13:48 39.78074 -4.01341 37035 ft 422 kts 216°
2026-04-27 13:48 39.73198 -4.05586 37039 ft 422 kts 216°
2026-04-27 13:49 39.68317 -4.09836 37024 ft 422 kts 215°
2026-04-27 13:49 39.63435 -4.14086 37033 ft 422 kts 215°
2026-04-27 13:50 39.58554 -4.18327 37022 ft 422 kts 215°
2026-04-27 13:50 39.53672 -4.22564 37024 ft 422 kts 215°
2026-04-27 13:51 39.48788 -4.26793 37020 ft 422 kts 215°
2026-04-27 13:51 39.43904 -4.31016 37020 ft 422 kts 215°
2026-04-27 13:52 39.39018 -4.35234 37021 ft 422 kts 215°
2026-04-27 13:52 39.34135 -4.39441 37018 ft 422 kts 215°
2026-04-27 13:53 39.26816 -4.45737 37015 ft 421 kts 215°
2026-04-27 13:54 39.21938 -4.49922 37012 ft 421 kts 214°
2026-04-27 13:54 39.17052 -4.54093 37011 ft 421 kts 214°
2026-04-27 13:55 39.12166 -4.58256 37008 ft 421 kts 214°
2026-04-27 13:55 39.07282 -4.62412 37005 ft 421 kts 214°
2026-04-27 13:56 39.02437 -4.66530 37007 ft 420 kts 214°
2026-04-27 13:56 38.97560 -4.70666 36997 ft 420 kts 214°
2026-04-27 13:57 38.92687 -4.74791 37003 ft 419 kts 214°
2026-04-27 13:57 38.87816 -4.78909 36997 ft 419 kts 214°
2026-04-27 13:58 38.82941 -4.83025 36992 ft 419 kts 214°
2026-04-27 13:58 38.78070 -4.87132 36983 ft 417 kts 214°
2026-04-27 13:58 38.75682 -4.89141 36959 ft 403 kts 214°
2026-04-27 13:59 38.73378 -4.91078 36965 ft 389 kts 214°
2026-04-27 13:59 38.68920 -4.94824 36979 ft 383 kts 214°
2026-04-27 14:00 38.64456 -4.98572 36999 ft 385 kts 214°
2026-04-27 14:00 38.59925 -5.02369 36993 ft 394 kts 214°
2026-04-27 14:01 38.55375 -5.06177 36962 ft 386 kts 214°
2026-04-27 14:01 38.50925 -5.09893 36974 ft 381 kts 215°
2026-04-27 14:01 38.48946 -5.12119 36963 ft 380 kts 232°
2026-04-27 14:02 38.47561 -5.14976 36980 ft 380 kts 246°
2026-04-27 14:02 38.46823 -5.18217 36987 ft 382 kts 261°
2026-04-27 14:02 38.46800 -5.21612 36987 ft 386 kts 277°
2026-04-27 14:02 38.47539 -5.24910 36980 ft 391 kts 293°
2026-04-27 14:03 38.49028 -5.27836 36974 ft 397 kts 310°
2026-04-27 14:03 38.51158 -5.30097 36976 ft 403 kts 328°
2026-04-27 14:03 38.53766 -5.31461 36976 ft 409 kts 346°
2026-04-27 14:03 38.56608 -5.31751 36980 ft 414 kts
2026-04-27 14:04 38.59431 -5.30990 36981 ft 418 kts 21°
2026-04-27 14:04 38.61953 -5.29136 36987 ft 421 kts 40°
2026-04-27 14:04 38.63914 -5.26346 36980 ft 426 kts 60°
2026-04-27 14:04 38.65097 -5.22892 36989 ft 427 kts 78°
2026-04-27 14:05 38.65392 -5.19124 36979 ft 426 kts 97°
2026-04-27 14:05 38.64768 -5.15445 36992 ft 424 kts 115°
2026-04-27 14:05 38.63287 -5.12205 36977 ft 422 kts 134°
2026-04-27 14:05 38.61100 -5.09751 36988 ft 419 kts 152°
2026-04-27 14:06 38.58443 -5.08293 36977 ft 417 kts 170°
2026-04-27 14:06 38.55573 -5.07932 36989 ft 415 kts 185°
2026-04-27 14:06 38.52817 -5.08565 36951 ft 402 kts 202°
2026-04-27 14:06 38.50320 -5.09972 36982 ft 385 kts 207°
2026-04-27 14:07 38.47913 -5.11484 36963 ft 376 kts 207°
2026-04-27 14:07 38.45621 -5.12959 36787 ft 373 kts 207°
2026-04-27 14:07 38.43289 -5.14458 36022 ft 380 kts 207°
2026-04-27 14:07 38.40879 -5.15997 35052 ft 394 kts 207°
2026-04-27 14:08 38.38397 -5.17567 34355 ft 400 kts 206°
2026-04-27 14:08 38.35903 -5.19132 33961 ft 398 kts 206°
2026-04-27 14:08 38.33427 -5.20676 33621 ft 393 kts 206°
2026-04-27 14:08 38.31773 -5.21705 33374 ft 390 kts 206°
2026-04-27 14:09 38.29343 -5.23214 32983 ft 387 kts 206°
2026-04-27 14:09 38.26928 -5.24711 32571 ft 385 kts 206°
2026-04-27 14:09 38.24524 -5.26201 32161 ft 383 kts 206°
2026-04-27 14:09 38.22135 -5.27680 31763 ft 381 kts 206°
2026-04-27 14:10 38.19764 -5.29146 31396 ft 378 kts 206°
2026-04-27 14:10 38.17404 -5.30605 31036 ft 376 kts 206°
2026-04-27 14:10 38.15061 -5.32053 30678 ft 373 kts 206°
2026-04-27 14:10 38.12761 -5.33472 30325 ft 371 kts 206°
2026-04-27 14:11 38.10445 -5.34901 29956 ft 369 kts 206°
2026-04-27 14:11 38.08142 -5.36321 29552 ft 367 kts 206°
2026-04-27 14:11 38.05823 -5.37750 29116 ft 365 kts 206°
2026-04-27 14:11 38.03549 -5.39150 28690 ft 363 kts 206°
2026-04-27 14:12 38.01311 -5.40526 28269 ft 361 kts 206°
2026-04-27 14:12 37.99058 -5.41911 27856 ft 359 kts 206°
2026-04-27 14:12 37.96778 -5.43312 27357 ft 360 kts 206°
2026-04-27 14:12 37.94562 -5.44672 26982 ft 357 kts 206°
2026-04-27 14:13 37.92332 -5.46041 26607 ft 355 kts 206°
2026-04-27 14:13 37.90115 -5.47400 26240 ft 353 kts 205°
2026-04-27 14:13 37.87911 -5.48750 25882 ft 351 kts 205°
2026-04-27 14:13 37.85722 -5.50091 25521 ft 348 kts 205°
2026-04-27 14:14 37.83548 -5.51421 25172 ft 347 kts 205°
2026-04-27 14:14 37.81383 -5.52745 24825 ft 345 kts 205°
2026-04-27 14:14 37.79225 -5.54063 24477 ft 343 kts 205°
2026-04-27 14:14 37.77082 -5.55372 24122 ft 342 kts 205°
2026-04-27 14:15 37.74943 -5.56677 23772 ft 341 kts 205°
2026-04-27 14:15 37.72812 -5.57977 23393 ft 340 kts 205°
2026-04-27 14:15 37.70687 -5.59272 22992 ft 338 kts 205°
2026-04-27 14:15 37.68576 -5.60559 22620 ft 336 kts 205°
2026-04-27 14:16 37.66481 -5.61834 22268 ft 333 kts 205°
2026-04-27 14:16 37.64403 -5.63099 21923 ft 331 kts 205°
2026-04-27 14:16 37.62338 -5.64354 21584 ft 328 kts 205°
2026-04-27 14:16 37.60289 -5.65599 21241 ft 326 kts 205°
2026-04-27 14:17 37.58255 -5.66834 20906 ft 323 kts 205°
2026-04-27 14:17 37.56232 -5.68062 20571 ft 321 kts 205°
2026-04-27 14:17 37.54225 -5.69280 20247 ft 319 kts 205°
2026-04-27 14:17 37.52232 -5.70488 19922 ft 317 kts 205°
2026-04-27 14:18 37.50249 -5.71690 19591 ft 315 kts 205°
2026-04-27 14:18 37.48279 -5.72883 19271 ft 314 kts 205°
2026-04-27 14:18 37.46318 -5.74070 18946 ft 312 kts 205°
2026-04-27 14:18 37.44366 -5.75250 18627 ft 311 kts 205°
2026-04-27 14:19 37.42415 -5.76401 18305 ft 309 kts 201°
2026-04-27 14:19 37.40402 -5.77330 17953 ft 308 kts 198°
2026-04-27 14:19 37.38368 -5.78149 17616 ft 306 kts 197°
2026-04-27 14:19 37.36341 -5.78942 17284 ft 304 kts 197°
2026-04-27 14:20 37.34332 -5.79733 16960 ft 302 kts 197°
2026-04-27 14:20 37.32339 -5.80526 16651 ft 300 kts 197°
2026-04-27 14:20 37.30351 -5.81325 16340 ft 298 kts 197°
2026-04-27 14:20 37.28384 -5.82121 16027 ft 296 kts 197°
2026-04-27 14:21 37.26427 -5.82916 15719 ft 295 kts 198°
2026-04-27 14:21 37.24483 -5.83708 15419 ft 293 kts 198°
2026-04-27 14:21 37.22549 -5.84496 15108 ft 292 kts 198°
2026-04-27 14:21 37.20620 -5.85282 14812 ft 290 kts 198°
2026-04-27 14:22 37.18706 -5.86063 14500 ft 289 kts 198°
2026-04-27 14:22 37.17463 -5.86570 14301 ft 289 kts 198°
2026-04-27 14:22 37.15818 -5.87240 14039 ft 288 kts 198°
2026-04-27 14:22 37.13914 -5.88016 13737 ft 287 kts 198°
2026-04-27 14:23 37.12017 -5.88788 13400 ft 286 kts 198°
2026-04-27 14:23 37.10126 -5.89558 13073 ft 285 kts 198°
2026-04-27 14:23 37.08247 -5.90323 12761 ft 283 kts 198°
2026-04-27 14:23 37.06377 -5.91084 12443 ft 282 kts 198°
2026-04-27 14:24 37.04518 -5.91839 12139 ft 280 kts 198°
2026-04-27 14:24 37.02672 -5.92588 11846 ft 278 kts 199°
2026-04-27 14:24 37.00841 -5.93365 11552 ft 277 kts 201°
2026-04-27 14:24 36.99003 -5.94232 10498 ft 290 kts 202°
2026-04-27 14:25 36.97099 -5.95139 9174 ft 298 kts 202°
2026-04-27 14:25 36.95131 -5.96075 7760 ft 305 kts 201°
2026-04-27 14:25 36.93135 -5.97023 6379 ft 309 kts 200°
2026-04-27 14:25 36.91114 -5.97983 4968 ft 311 kts 199°
2026-04-27 14:26 36.89085 -5.98945 3495 ft 314 kts 199°
2026-04-27 14:26 36.87049 -5.99911 2536 ft 302 kts 199°
2026-04-27 14:26 36.85178 -6.00779 2121 ft 274 kts 198°
2026-04-27 14:26 36.83469 -6.01599 1769 ft 254 kts 199°
2026-04-27 14:27 36.81874 -6.02386 1442 ft 238 kts 198°
2026-04-27 14:27 36.80397 -6.03107 1158 ft 219 kts 199°
2026-04-27 14:27 36.79039 -6.03773 882 ft 201 kts 198°
2026-04-27 14:27 36.77786 -6.04387 640 ft 186 kts 197°
2026-04-27 14:28 36.76624 -6.04955 388 ft 171 kts 198°
2026-04-27 14:28 36.75614 -6.05462 249 ft 143 kts 195°
2026-04-27 14:28 36.74744 -6.05874 92 ft 121 kts 198°
2026-04-27 14:28 36.74205 -6.06142 87 ft 53 kts 206°
2026-04-27 14:29 36.74037 -6.06321 86 ft 24 kts 230°
2026-04-27 14:29 36.74043 -6.06437 85 ft 16 kts 345°
2026-04-27 14:29 36.74170 -6.06374 85 ft 21 kts 23°
2026-04-27 14:29 36.74303 -6.06312 87 ft 20 kts 21°
2026-04-27 14:30 36.74427 -6.06246 86 ft 19 kts 22°
2026-04-27 14:30 36.74573 -6.06176 87 ft 24 kts 20°
2026-04-27 14:30 36.74725 -6.06114 84 ft 23 kts 349°
2026-04-27 14:30 36.74792 -6.06249 86 ft 18 kts 308°
2026-04-27 14:31 36.74850 -6.06361 88 ft 11 kts 291°
2026-04-27 14:31 36.74851 -6.06365 87 ft 0 kts 291°